Regional Weather Roundup
Issued by NWS

Home | Current Version | Previous Version | Text Only | Print | Product List | Glossary On
Versions: 1 2 3 4 5 6 7 8 9 10 11 12 13 14 15 16 17 18 19 20 21 22 23 24 25 26 27 28 29 30 31 32 33 34 35 36 37 38 39 40 41 42 43 44 45 46 47 48 49 50
871
ASUS43 KIND 010009
RWRIN

WEATHER ROUNDUP FOR INDIANA
NATIONAL WEATHER SERVICE INDIANAPOLIS IN
800 PM EDT SUN APR 30 2017

NOTE: "FAIR" INDICATES FEW OR NO CLOUDS BELOW 12,000 FEET WITH NO
SIGNIFICANT WEATHER AND/OR OBSTRUCTIONS TO VISIBILITY.

* - STATION DOES NOT REPORT WEATHER SUCH AS PRECIPITATION OR FOG.

+ - STATION NOT QUALITY CONTROLLED BY THE NATIONAL WEATHER SERVICE.
    USE DATA WITH CAUTION...ESPECIALLY DEWPOINT AND RELATIVE
    HUMIDITY OBSERVATIONS.

INZ001>003-010>013-019-020-010100-
NORTHWEST INDIANA

CITY           SKY/WX    TMP DP  RH WIND       PRES   REMARKS
GARY /AIRPORT/ LGT RAIN  46  46 100 NE8       29.72F
KNOX *+        CLOUDY    63  59  88 E3        29.69F
LA PORTE +     LGT RAIN  52  51  98 NE7       29.71F
6HR MIN TEMP:  52; 6HR MAX TEMP:  60; 6HR PCP:  0.11;

MICHIGAN CITY+ LGT SNOW  50  50 100 CALM      29.72F VSB 1
MONTICELLO +   CLOUDY    64  63  96 E3        29.68F
6HR MIN TEMP:  64; 6HR MAX TEMP:  66; 6HR PCP:  0.16;

RENSSELAER +   CLOUDY    64  63  94 E7        29.68F
VALPARAISO     LGT RAIN  52  51  97 NE6       29.70F FOG
6HR MIN TEMP:  51; 6HR MAX TEMP:  60; 6HR PCP:  0.19;


$$

LMZ046-743>745-010100-
SOUTHERN LAKE MICHIGAN

STATION/POSITION TIME  TEMP    WIND        PRES    WAVE
                       AIR SEA DIR/SP/G            HT
                 (UTC) (F)     (DEG/KT/KT) (MB)    (FT)
BURNS HARBOR     2340   48      60/  9/ 10 1007.1F
MICHIGAN CITY    2330   47      40/ 10/ 10   N/A
5NW MICH CITY    0000   47 48                N/A     3

$$

INZ004-005-014>016-021>024-010100-
NORTH CENTRAL INDIANA

CITY           SKY/WX    TMP DP  RH WIND       PRES   REMARKS
GOSHEN         LGT RAIN  65  62  90 SE6       29.74F
6HR MIN TEMP:  65; 6HR MAX TEMP:  68; 6HR PCP:  0.18;

LOGANSPORT +   LGT RAIN  63  63 100 E7        29.68F
PERU/GRISSOM   DRIZZLE   64  64 100 E13       29.67F
6HR MIN TEMP:  64; 6HR MAX TEMP:  67; 6HR PCP:  0.39;

ROCHESTER +    RAIN      66  64  94 SE8       29.72F
SOUTH BEND     CLOUDY    60  60 100 NE5       29.73F FOG
6HR MIN TEMP:  60; 6HR MAX TEMP:  68; 6HR PCP:  0.09;

WARSAW +       RAIN      63  63 100 SE3       29.74F

$$

INZ006>009-017-018-025>027-010100-
NORTHEAST INDIANA

CITY           SKY/WX    TMP DP  RH WIND       PRES   REMARKS
ANGOLA *+      MOCLDY    64  61  88 CALM      29.78S
AUBURN +       CLOUDY    64  61  88 CALM      29.77F
FORT WAYNE     CLOUDY    65  62  90 E5        29.75F
6HR MIN TEMP:  65; 6HR MAX TEMP:  71; 6HR PCP:  0.10;

HUNTINGTON +   HVY RAIN N/A N/A N/A CALM      29.76R
                                      6HR PCP:  0.19;

KENDALLVILLE + LGT RAIN  64  64 100 S3        29.77F

$$

INZ028-029-035-036-043>045-051>053-010100-
WEST CENTRAL INDIANA

CITY           SKY/WX    TMP DP  RH WIND       PRES   REMARKS
CRAWFORDSVL +  MOCLDY    66  66 100 S12       29.66F
6HR MIN TEMP:  63; 6HR MAX TEMP:  66; 6HR PCP:  0.08;

GREENCASTLE +  CLOUDY    64  64 100 SE6       29.69F
LAFAYETTE      CLOUDY    64  64 100 E5        29.66F
6HR MIN TEMP:  64; 6HR MAX TEMP:  67; 6HR PCP:  0.10;

TERRE HAUTE    CLOUDY    69  65  86 SE8       29.65F
6HR MIN TEMP:  65; 6HR MAX TEMP:  70; 6HR PCP:  0.10;


$$

INZ030>032-037>040-046>048-054>057-064-065-010100-
CENTRAL INDIANA

CITY           SKY/WX    TMP DP  RH WIND       PRES   REMARKS
CP ATTERBURY + CLOUDY    68  63  83 CALM      29.72R
COLUMBUS       CLOUDY    72  64  78 S8        29.72F
FRANKFORT +    CLOUDY    68  65  92 S17       29.69F
6HR MIN TEMP:  67; 6HR MAX TEMP:  69; 6HR PCP:  0.08;

GREENWOOD *+   CLOUDY    66  65  96 CALM      29.73F
6HR MIN TEMP:  64; 6HR MAX TEMP:  69;

INDIANAPOLIS   CLOUDY    65  64  97 E7        29.69F
6HR MIN TEMP:  64; 6HR MAX TEMP:  67; 6HR PCP:  0.70;

-EAGLE CREEK   CLOUDY    66  64  93 E8        29.70F
6HR MIN TEMP:  65; 6HR MAX TEMP:  67; 6HR PCP:  0.48;

KOKOMO +       LGT RAIN  64  63  96 SE12      29.69F
6HR MIN TEMP:  64; 6HR MAX TEMP:  69; 6HR PCP:  0.30;

MARION +       LGT RAIN  63  63 100 S6        29.77R
MT COMFORT *+  CLOUDY    64  63  94 NE6       29.72F
SHELBYVILLE    CLOUDY    69  64  84 VRB6      29.72F
6HR MIN TEMP:  67; 6HR MAX TEMP:  75; 6HR PCP:  0.08;

ZIONSVILLE +   CLOUDY    64  63  97 SE6       29.72F
6HR MIN TEMP:  63; 6HR MAX TEMP:  65; 6HR PCP:  0.43;


$$

INZ033-034-041-042-049-050-058-059-010100-
EAST CENTRAL INDIANA

CITY           SKY/WX    TMP DP  RH WIND       PRES   REMARKS
MUNCIE         LGT RAIN  67  63  87 SE3       29.73F
6HR MIN TEMP:  65; 6HR MAX TEMP:  73; 6HR PCP:  0.45;

RICHMOND +     CLOUDY    73  63  68 S16G22    29.78F

$$

INZ060-061-067>069-081>083-085>088-010100-
SOUTHWEST INDIANA

CITY           SKY/WX    TMP DP  RH WIND       PRES   REMARKS
EVANSVILLE     MOCLDY    73  63  70 S13G22    29.68F
6HR MIN TEMP:  68; 6HR MAX TEMP:  74;

WASHINGTON +   CLOUDY    71  65  83 S9        29.66F
6HR MIN TEMP:  64; 6HR MAX TEMP:  71; 6HR PCP:  0.61;


$$

INZ062-063-066-070>080-084-089>092-010100-
SOUTH CENTRAL AND SOUTHEAST INDIANA

CITY           SKY/WX    TMP DP  RH WIND       PRES   REMARKS
BEDFORD +      CLOUDY    75  61  60 S9G20     29.69
BLOOMINGTON    CLOUDY    69  65  86 SE6       29.69F
6HR MIN TEMP:  64; 6HR MAX TEMP:  69; 6HR PCP:  0.95;

MADISON *+     CLOUDY    75  61  60 S14G23    29.79R
NORTH VERNON + MOCLDY    75  63  64 S17G23    29.74S
SEYMOUR +      CLOUDY    77  63  61 S13G21    29.72

$$





USA.gov is the U.S. government's official web portal to all federal, state and local government web resources and services.